Time,TemperatureF,DewpointF,PressureIn,WindDirection,WindDirectionDegrees,WindSpeedMPH,WindSpeedGustMPH,Humidity,HourlyPrecipIn,Conditions,Clouds,dailyrainin,SoftwareType,DateUTC
2013-03-15 00:03:00,32.0,11.0,30.12,North,0,1.0,7.0,41,0.00,,,0.00,,2013-03-15 04:03:00,
2013-03-15 00:12:00,32.0,11.0,30.12,North,0,1.0,7.0,41,0.00,,,0.00,,2013-03-15 04:12:00,
2013-03-15 00:23:00,33.0,12.0,30.12,East,90,5.0,7.0,42,0.00,,,0.00,,2013-03-15 04:23:00,
2013-03-15 00:33:00,33.0,11.0,30.11,East,91,2.0,6.0,40,0.00,,,0.00,,2013-03-15 04:33:00,
2013-03-15 00:43:00,33.0,11.0,30.11,East,91,2.0,6.0,40,0.00,,,0.00,,2013-03-15 04:43:00,
2013-03-15 00:52:00,33.0,11.0,30.10,East,86,4.0,8.0,40,0.00,,,0.00,,2013-03-15 04:52:00,
2013-03-15 01:02:00,35.0,10.0,30.11,East,86,7.0,11.0,35,0.00,,,0.00,,2013-03-15 05:02:00,
2013-03-15 01:12:00,35.0,10.0,30.11,East,86,7.0,11.0,35,0.00,,,0.00,,2013-03-15 05:12:00,
2013-03-15 01:23:00,35.0,10.0,30.10,ESE,103,2.0,10.0,35,0.00,,,0.00,,2013-03-15 05:23:00,
2013-03-15 01:32:00,35.0,11.0,30.11,WSW,237,2.0,7.0,37,0.00,,,0.00,,2013-03-15 05:32:00,
2013-03-15 01:42:00,35.0,11.0,30.11,WSW,237,2.0,7.0,37,0.00,,,0.00,,2013-03-15 05:42:00,
2013-03-15 01:52:00,35.0,11.0,30.11,South,190,1.0,4.0,37,0.00,,,0.00,,2013-03-15 05:52:00,
2013-03-15 02:02:00,35.0,12.0,30.10,SE,137,2.0,7.0,38,0.00,,,0.00,,2013-03-15 06:02:00,
2013-03-15 02:12:00,35.0,12.0,30.10,SE,137,2.0,7.0,38,0.00,,,0.00,,2013-03-15 06:12:00,
2013-03-15 02:22:00,35.0,13.0,30.10,SE,137,0.0,3.0,40,0.00,,,0.00,,2013-03-15 06:22:00,
2013-03-15 02:32:00,35.0,15.0,30.10,SSE,153,0.0,4.0,44,0.00,,,0.00,,2013-03-15 06:32:00,
2013-03-15 02:42:00,35.0,15.0,30.10,SSE,153,0.0,4.0,44,0.00,,,0.00,,2013-03-15 06:42:00,
2013-03-15 02:52:00,35.0,15.0,30.09,SE,133,2.0,4.0,44,0.00,,,0.00,,2013-03-15 06:52:00,
2013-03-15 03:02:00,36.0,17.0,30.09,East,83,2.0,5.0,46,0.00,,,0.00,,2013-03-15 07:02:00,
2013-03-15 03:13:00,36.0,17.0,30.09,East,83,2.0,5.0,46,0.00,,,0.00,,2013-03-15 07:13:00,
2013-03-15 03:22:00,36.0,17.0,30.09,East,83,0.0,3.0,46,0.00,,,0.00,,2013-03-15 07:22:00,
2013-03-15 03:32:00,36.0,18.0,30.08,SSW,211,0.0,7.0,48,0.00,,,0.00,,2013-03-15 07:32:00,
2013-03-15 03:42:00,36.0,18.0,30.08,SSW,211,0.0,7.0,48,0.00,,,0.00,,2013-03-15 07:42:00,
2013-03-15 03:52:00,35.0,17.0,30.08,SSW,211,1.0,2.0,48,0.00,,,0.00,,2013-03-15 07:52:00,
2013-03-15 04:02:00,35.0,21.0,30.06,SSW,211,6.0,14.0,56,0.00,,,0.00,,2013-03-15 08:02:00,
2013-03-15 04:12:00,35.0,21.0,30.06,SSW,211,6.0,14.0,56,0.00,,,0.00,,2013-03-15 08:12:00,
2013-03-15 04:23:00,36.0,21.0,30.06,SSW,213,1.0,4.0,55,0.00,,,0.00,,2013-03-15 08:23:00,
2013-03-15 04:33:00,35.0,21.0,30.06,South,180,1.0,5.0,56,0.00,,,0.00,,2013-03-15 08:33:00,
2013-03-15 04:42:00,35.0,21.0,30.06,South,180,1.0,5.0,56,0.00,,,0.00,,2013-03-15 08:42:00,
2013-03-15 04:52:00,34.0,21.0,30.05,South,170,3.0,6.0,59,0.00,,,0.00,,2013-03-15 08:52:00,
2013-03-15 05:02:00,35.0,24.0,30.04,SSW,212,3.0,16.0,64,0.00,,,0.00,,2013-03-15 09:02:00,
2013-03-15 05:12:00,35.0,24.0,30.04,SSW,212,3.0,16.0,64,0.00,,,0.00,,2013-03-15 09:12:00,
2013-03-15 05:22:00,36.0,25.0,30.06,NW,315,6.0,11.0,65,0.00,,,0.00,,2013-03-15 09:22:00,
2013-03-15 05:33:00,37.0,26.0,30.06,SSW,193,4.0,16.0,65,0.00,,,0.00,,2013-03-15 09:33:00,
2013-03-15 05:43:00,37.0,26.0,30.06,SSW,193,4.0,16.0,65,0.00,,,0.00,,2013-03-15 09:43:00,
2013-03-15 05:52:00,37.0,26.0,30.06,South,186,2.0,8.0,65,0.00,,,0.00,,2013-03-15 09:52:00,
2013-03-15 06:03:00,38.0,27.0,30.06,SSW,209,4.0,11.0,65,0.00,,,0.00,,2013-03-15 10:03:00,
2013-03-15 06:13:00,38.0,27.0,30.06,SSW,209,4.0,11.0,65,0.00,,,0.00,,2013-03-15 10:13:00,
2013-03-15 06:23:00,38.0,27.0,30.06,SW,222,0.0,5.0,65,0.00,,,0.00,,2013-03-15 10:23:00,
2013-03-15 06:33:00,38.0,28.0,30.07,SW,223,0.0,4.0,67,0.00,,,0.00,,2013-03-15 10:33:00,
2013-03-15 06:42:00,38.0,28.0,30.07,SW,223,0.0,4.0,67,0.00,,,0.00,,2013-03-15 10:42:00,
2013-03-15 06:52:00,38.0,28.0,30.07,SW,221,1.0,4.0,67,0.00,,,0.00,,2013-03-15 10:52:00,
2013-03-15 07:03:00,37.0,27.0,30.07,SW,219,0.0,3.0,68,0.00,,,0.00,,2013-03-15 11:03:00,
2013-03-15 07:12:00,37.0,27.0,30.07,SW,219,0.0,3.0,68,0.00,,,0.00,,2013-03-15 11:12:00,
2013-03-15 07:23:00,38.0,27.0,30.07,South,178,0.0,5.0,65,0.00,,,0.00,,2013-03-15 11:23:00,
2013-03-15 07:32:00,38.0,27.0,30.07,South,178,0.0,2.0,65,0.00,,,0.00,,2013-03-15 11:32:00,
2013-03-15 07:42:00,38.0,27.0,30.07,South,178,0.0,2.0,65,0.00,,,0.00,,2013-03-15 11:42:00,
2013-03-15 07:52:00,37.0,26.0,30.07,South,178,0.0,3.0,65,0.00,,,0.00,,2013-03-15 11:52:00,
2013-03-15 08:02:00,37.0,27.0,30.07,South,177,1.0,3.0,66,0.00,,,0.00,,2013-03-15 12:02:00,
2013-03-15 08:12:00,37.0,27.0,30.07,South,177,1.0,3.0,66,0.00,,,0.00,,2013-03-15 12:12:00,
2013-03-15 08:23:00,36.0,26.0,30.07,South,178,0.0,3.0,68,0.00,,,0.00,,2013-03-15 12:23:00,
2013-03-15 08:32:00,37.0,27.0,30.07,South,178,0.0,1.0,67,0.00,,,0.00,,2013-03-15 12:32:00,
2013-03-15 08:42:00,37.0,27.0,30.07,South,178,0.0,1.0,67,0.00,,,0.00,,2013-03-15 12:42:00,
2013-03-15 08:52:00,37.0,27.0,30.08,South,178,0.0,1.0,66,0.00,,,0.00,,2013-03-15 12:52:00,
2013-03-15 09:02:00,38.0,28.0,30.07,South,178,0.0,3.0,66,0.00,,,0.00,,2013-03-15 13:02:00,
2013-03-15 09:12:00,38.0,28.0,30.07,South,178,0.0,3.0,66,0.00,,,0.00,,2013-03-15 13:12:00,
2013-03-15 09:22:00,38.0,27.0,30.07,South,177,0.0,3.0,65,0.00,,,0.00,,2013-03-15 13:22:00,
2013-03-15 09:32:00,38.0,27.0,30.07,South,177,0.0,2.0,63,0.00,,,0.00,,2013-03-15 13:32:00,
2013-03-15 09:42:00,38.0,27.0,30.07,South,177,0.0,2.0,63,0.00,,,0.00,,2013-03-15 13:42:00,
2013-03-15 09:52:00,38.0,27.0,30.07,South,175,0.0,4.0,63,0.00,,,0.00,,2013-03-15 13:52:00,
2013-03-15 10:02:00,39.0,27.0,30.07,South,183,0.0,4.0,63,0.00,,,0.00,,2013-03-15 14:02:00,
2013-03-15 10:12:00,39.0,27.0,30.07,South,183,0.0,4.0,63,0.00,,,0.00,,2013-03-15 14:12:00,
2013-03-15 10:22:00,39.0,27.0,30.07,South,183,0.0,3.0,63,0.00,,,0.00,,2013-03-15 14:22:00,
2013-03-15 10:33:00,42.0,30.0,30.06,South,183,1.0,3.0,61,0.00,,,0.00,,2013-03-15 14:33:00,
2013-03-15 10:42:00,42.0,30.0,30.06,South,183,1.0,3.0,61,0.00,,,0.00,,2013-03-15 14:42:00,
2013-03-15 10:52:00,43.0,30.0,30.06,South,185,0.0,3.0,60,0.00,,,0.00,,2013-03-15 14:52:00,
2013-03-15 11:02:00,46.0,30.0,30.05,SW,223,3.0,6.0,54,0.00,,,0.00,,2013-03-15 15:02:00,
2013-03-15 11:13:00,46.0,30.0,30.05,SW,223,3.0,6.0,54,0.00,,,0.00,,2013-03-15 15:13:00,
2013-03-15 11:23:00,47.0,30.0,30.06,SW,224,3.0,7.0,52,0.00,,,0.00,,2013-03-15 15:23:00,
2013-03-15 11:33:00,49.0,31.0,30.04,SSE,167,2.0,6.0,49,0.00,,,0.00,,2013-03-15 15:33:00,
2013-03-15 11:42:00,50.0,31.0,30.04,SW,226,4.0,7.0,48,0.00,,,0.00,,2013-03-15 15:42:00,
2013-03-15 11:52:00,50.0,31.0,30.04,SW,226,4.0,7.0,48,0.00,,,0.00,,2013-03-15 15:52:00,
2013-03-15 12:03:00,51.0,32.0,30.03,SSW,203,3.0,8.0,48,0.00,,,0.00,,2013-03-15 16:03:00,
2013-03-15 12:12:00,52.0,32.0,30.03,SSW,205,4.0,8.0,46,0.00,,,0.00,,2013-03-15 16:12:00,
2013-03-15 12:23:00,52.0,32.0,30.03,SSW,205,4.0,8.0,46,0.00,,,0.00,,2013-03-15 16:23:00,
2013-03-15 12:32:00,54.0,33.0,30.03,SW,222,4.0,8.0,44,0.00,,,0.00,,2013-03-15 16:32:00,
2013-03-15 12:42:00,54.0,33.0,30.03,SW,222,4.0,8.0,44,0.00,,,0.00,,2013-03-15 16:42:00,
2013-03-15 12:52:00,55.0,33.0,30.03,SW,221,3.0,9.0,43,0.00,,,0.00,,2013-03-15 16:52:00,
2013-03-15 13:02:00,56.0,34.0,30.02,SSW,212,3.0,10.0,43,0.00,,,0.00,,2013-03-15 17:02:00,
2013-03-15 13:12:00,56.0,34.0,30.02,SSW,212,3.0,10.0,43,0.00,,,0.00,,2013-03-15 17:12:00,
2013-03-15 13:22:00,56.0,33.0,30.01,SW,219,3.0,8.0,41,0.00,,,0.00,,2013-03-15 17:22:00,
2013-03-15 13:32:00,57.0,35.0,30.01,SSW,211,4.0,11.0,43,0.00,,,0.00,,2013-03-15 17:32:00,
2013-03-15 13:42:00,57.0,35.0,30.01,SSW,211,4.0,11.0,43,0.00,,,0.00,,2013-03-15 17:42:00,
2013-03-15 13:52:00,57.0,33.0,30.01,SW,226,5.0,12.0,40,0.00,,,0.00,,2013-03-15 17:52:00,
2013-03-15 14:03:00,58.0,34.0,30.00,SW,215,5.0,10.0,40,0.00,,,0.00,,2013-03-15 18:03:00,
2013-03-15 14:12:00,58.0,34.0,30.00,SW,215,5.0,10.0,40,0.00,,,0.00,,2013-03-15 18:12:00,
2013-03-15 14:22:00,59.0,34.0,29.99,SSW,209,3.0,7.0,39,0.00,,,0.00,,2013-03-15 18:22:00,
2013-03-15 14:32:00,60.0,34.0,29.98,SW,223,3.0,12.0,37,0.00,,,0.00,,2013-03-15 18:32:00,
2013-03-15 14:42:00,60.0,34.0,29.98,SW,223,3.0,12.0,37,0.00,,,0.00,,2013-03-15 18:42:00,
2013-03-15 15:02:00,61.0,33.0,29.97,West,274,5.0,14.0,35,0.00,,,0.00,,2013-03-15 19:02:00,
2013-03-15 15:12:00,61.0,33.0,29.97,West,274,5.0,14.0,35,0.00,,,0.00,,2013-03-15 19:12:00,
2013-03-15 15:22:00,62.0,34.0,29.96,SSW,201,3.0,11.0,35,0.00,,,0.00,,2013-03-15 19:22:00,
2013-03-15 15:32:00,62.0,33.0,29.95,SSW,213,3.0,9.0,34,0.00,,,0.00,,2013-03-15 19:32:00,
2013-03-15 15:42:00,62.0,33.0,29.95,SSW,213,3.0,9.0,34,0.00,,,0.00,,2013-03-15 19:42:00,
2013-03-15 15:52:00,63.0,35.0,29.94,SSW,201,3.0,11.0,35,0.00,,,0.00,,2013-03-15 19:52:00,
2013-03-15 16:02:00,64.0,34.0,29.94,SW,223,5.0,10.0,33,0.00,,,0.00,,2013-03-15 20:02:00,
2013-03-15 16:12:00,64.0,34.0,29.94,SW,223,5.0,10.0,33,0.00,,,0.00,,2013-03-15 20:12:00,
2013-03-15 16:22:00,64.0,34.0,29.93,SW,232,3.0,9.0,32,0.00,,,0.00,,2013-03-15 20:22:00,
2013-03-15 16:32:00,64.0,34.0,29.93,WSW,250,3.0,13.0,32,0.00,,,0.00,,2013-03-15 20:32:00,
2013-03-15 16:42:00,64.0,34.0,29.93,WSW,250,3.0,13.0,32,0.00,,,0.00,,2013-03-15 20:42:00,
2013-03-15 16:52:00,64.0,32.0,29.94,SSE,164,3.0,13.0,30,0.00,,,0.00,,2013-03-15 20:52:00,
2013-03-15 17:02:00,64.0,32.0,29.92,SSW,198,6.0,11.0,30,0.00,,,0.00,,2013-03-15 21:02:00,
2013-03-15 17:12:00,64.0,32.0,29.92,SSW,198,6.0,11.0,30,0.00,,,0.00,,2013-03-15 21:12:00,
2013-03-15 17:22:00,64.0,29.0,29.93,WSW,245,5.0,15.0,27,0.00,,,0.00,,2013-03-15 21:22:00,
2013-03-15 17:33:00,64.0,29.0,29.93,NNE,20,6.0,19.0,27,0.00,,,0.00,,2013-03-15 21:33:00,
2013-03-15 17:43:00,64.0,29.0,29.93,NNE,20,6.0,19.0,27,0.00,,,0.00,,2013-03-15 21:43:00,
2013-03-15 17:52:00,64.0,29.0,29.93,WSW,253,7.0,16.0,27,0.00,,,0.00,,2013-03-15 21:52:00,
2013-03-15 18:04:00,63.0,29.0,29.92,SSE,148,5.0,17.0,27,0.00,,,0.00,,2013-03-15 22:04:00,
2013-03-15 18:14:00,63.0,29.0,29.92,SSE,148,5.0,17.0,27,0.00,,,0.00,,2013-03-15 22:14:00,
2013-03-15 18:22:00,63.0,29.0,29.92,SW,218,4.0,15.0,28,0.00,,,0.00,,2013-03-15 22:22:00,
2013-03-15 18:32:00,63.0,32.0,29.91,SSE,159,6.0,22.0,31,0.00,,,0.00,,2013-03-15 22:32:00,
2013-03-15 18:42:00,63.0,32.0,29.91,SSE,159,6.0,22.0,31,0.00,,,0.00,,2013-03-15 22:42:00,
2013-03-15 18:52:00,62.0,31.0,29.92,ESE,119,4.0,21.0,31,0.00,,,0.00,,2013-03-15 22:52:00,
2013-03-15 19:03:00,62.0,33.0,29.91,SSE,162,6.0,13.0,34,0.00,,,0.00,,2013-03-15 23:03:00,
2013-03-15 19:12:00,62.0,33.0,29.91,SSE,162,6.0,13.0,34,0.00,,,0.00,,2013-03-15 23:12:00,
2013-03-15 19:22:00,61.0,32.0,29.92,SSW,196,9.0,16.0,34,0.00,,,0.00,,2013-03-15 23:22:00,
2013-03-15 19:32:00,60.0,33.0,29.92,NNW,331,8.0,18.0,36,0.00,,,0.00,,2013-03-15 23:32:00,
2013-03-15 19:42:00,60.0,33.0,29.92,NNW,331,8.0,18.0,36,0.00,,,0.00,,2013-03-15 23:42:00,
2013-03-15 19:53:00,60.0,34.0,29.93,WSW,240,5.0,13.0,37,0.00,,,0.00,,2013-03-15 23:53:00,
2013-03-15 20:03:00,60.0,36.0,29.92,SW,225,4.0,20.0,40,0.00,,,0.00,,2013-03-16 00:03:00,
2013-03-15 20:12:00,60.0,36.0,29.92,SW,225,4.0,20.0,40,0.00,,,0.00,,2013-03-16 00:12:00,
2013-03-15 20:22:00,59.0,35.0,29.92,SW,214,4.0,10.0,41,0.00,,,0.00,,2013-03-16 00:22:00,
2013-03-15 20:32:00,59.0,36.0,29.92,SSW,199,1.0,15.0,42,0.00,,,0.00,,2013-03-16 00:32:00,
2013-03-15 20:42:00,59.0,36.0,29.92,SSW,199,1.0,15.0,42,0.00,,,0.00,,2013-03-16 00:42:00,
2013-03-15 20:52:00,59.0,36.0,29.92,SSW,199,1.0,15.0,42,0.00,,,0.00,,2013-03-16 00:52:00,
2013-03-15 21:03:00,58.0,36.0,29.92,SW,227,6.0,19.0,44,0.00,,,0.00,,2013-03-16 01:03:00,
2013-03-15 21:12:00,58.0,36.0,29.92,SW,227,6.0,19.0,44,0.00,,,0.00,,2013-03-16 01:12:00,
2013-03-15 21:22:00,58.0,36.0,29.92,SSW,199,4.0,16.0,44,0.00,,,0.00,,2013-03-16 01:22:00,
2013-03-15 21:32:00,58.0,36.0,29.92,SSW,203,4.0,17.0,44,0.00,,,0.00,,2013-03-16 01:32:00,
2013-03-15 21:42:00,58.0,36.0,29.92,SSW,203,4.0,17.0,44,0.00,,,0.00,,2013-03-16 01:42:00,
2013-03-15 21:52:00,58.0,37.0,29.93,SW,215,1.0,10.0,45,0.00,,,0.00,,2013-03-16 01:52:00,
2013-03-15 22:02:00,58.0,37.0,29.92,SSW,210,4.0,13.0,46,0.00,,,0.00,,2013-03-16 02:02:00,
2013-03-15 22:12:00,58.0,37.0,29.92,SSW,210,4.0,13.0,46,0.00,,,0.00,,2013-03-16 02:12:00,
2013-03-15 22:23:00,58.0,37.0,29.92,West,259,8.0,12.0,46,0.00,,,0.00,,2013-03-16 02:23:00,
2013-03-15 22:33:00,58.0,38.0,29.92,SSW,213,2.0,10.0,47,0.00,,,0.00,,2013-03-16 02:33:00,
2013-03-15 22:42:00,58.0,38.0,29.92,SSW,213,2.0,10.0,47,0.00,,,0.00,,2013-03-16 02:42:00,
2013-03-15 22:52:00,58.0,38.0,29.92,SSW,209,3.0,9.0,47,0.00,,,0.00,,2013-03-16 02:52:00,
2013-03-15 23:02:00,57.0,38.0,29.92,SW,236,2.0,10.0,48,0.00,,,0.00,,2013-03-16 03:02:00,
2013-03-15 23:12:00,57.0,38.0,29.92,SW,236,2.0,10.0,48,0.00,,,0.00,,2013-03-16 03:12:00,
2013-03-15 23:22:00,57.0,39.0,29.92,SSW,195,5.0,8.0,50,0.00,,,0.00,,2013-03-16 03:22:00,
2013-03-15 23:33:00,57.0,38.0,29.92,West,263,3.0,11.0,49,0.00,,,0.00,,2013-03-16 03:33:00,
2013-03-15 23:43:00,57.0,38.0,29.92,West,263,3.0,11.0,49,0.00,,,0.00,,2013-03-16 03:43:00,
2013-03-15 23:52:00,58.0,39.0,29.92,SSW,194,3.0,11.0,49,0.00,,,0.00,,2013-03-16 03:52:00,